2022-07-05 06:57:00, 238.7
2022-07-05 06:57:10, 238.8
2022-07-05 06:57:20, 238.7
2022-07-05 06:57:30, 238.8
2022-07-05 06:57:40, 238.8
2022-07-05 06:57:50, 238.7
2022-07-05 06:58:00, 238.8
2022-07-05 06:58:10, 238.7
2022-07-05 06:58:20, 238.7
2022-07-05 06:58:30, 238.7
2022-07-05 06:58:40, 238.7
2022-07-05 06:58:50, 238.7
2022-07-05 06:59:00, 238.6
2022-07-05 06:59:10, 238.7
2022-07-05 06:59:20, 238.7
2022-07-05 06:59:30, 238.8
2022-07-05 06:59:40, 238.8
2022-07-05 06:59:50, 238.8
2022-07-05 07:00:00, 238.8
2022-07-05 07:00:10, 238.8
2022-07-05 07:00:20, 238.7
2022-07-05 07:00:30, 238.8
2022-07-05 07:00:40, 238.8
2022-07-05 07:00:50, 238.8
2022-07-05 07:01:00, 238.8
2022-07-05 07:01:10, 238.8
2022-07-05 07:01:20, 238.8
2022-07-05 07:01:30, 238.8
2022-07-05 07:01:40, 238.4
2022-07-05 07:01:50, 238.8
2022-07-05 07:02:00, 238.8
2022-07-05 07:02:10, 238.8
2022-07-05 07:02:20, 238.6
2022-07-05 07:02:30, 238.8
2022-07-05 07:02:40, 238.8
2022-07-05 07:02:50, 238.8
2022-07-05 07:03:00, 238.9
2022-07-05 07:03:10, 238.8
2022-07-05 07:03:20, 238.8
2022-07-05 07:03:30, 238.9
2022-07-05 07:03:40, 238.8
2022-07-05 07:03:50, 238.9
2022-07-05 07:04:00, 238.9
2022-07-05 07:04:10, 238.9
2022-07-05 07:04:20, 238.9
2022-07-05 07:04:30, 238.9
2022-07-05 07:04:40, 238.9
2022-07-05 07:04:50, 238.9
2022-07-05 07:05:00, 238.9
2022-07-05 07:05:10, 238.9
2022-07-05 07:05:20, 238.9
2022-07-05 07:05:30, 238.9
2022-07-05 07:05:40, 238.9
2022-07-05 07:05:50, 238.9
2022-07-05 07:06:00, 238.8
2022-07-05 07:06:10, 238.9
2022-07-05 07:06:20, 238.9
2022-07-05 07:06:30, 238.9
2022-07-05 07:06:40, 238.9
2022-07-05 07:06:50, 238.9
2022-07-05 07:07:00, 238.9
2022-07-05 07:07:10, 238.9
2022-07-05 07:07:20, 238.7
2022-07-05 07:07:30, 238.9
2022-07-05 07:07:40, 238.9
2022-07-05 07:07:50, 238.9
2022-07-05 07:08:00, 238.9
2022-07-05 07:08:10, 238.7
2022-07-05 07:08:20, 238.8
2022-07-05 07:08:30, 238.9
2022-07-05 07:08:40, 238.9
2022-07-05 07:08:50, 238.9
2022-07-05 07:09:00, 238.6
2022-07-05 07:09:10, 238.9
2022-07-05 07:09:20, 238.7
2022-07-05 07:09:30, 238.8
2022-07-05 07:09:40, 238.8
2022-07-05 07:09:50, 238.8
2022-07-05 07:10:00, 238.8
2022-07-05 07:10:10, 238.8
2022-07-05 07:10:20, 238.8
2022-07-05 07:10:30, 238.8
2022-07-05 07:10:40, 238.8
2022-07-05 07:10:50, 238.8
2022-07-05 07:11:00, 238.8
2022-07-05 07:11:10, 238.8
2022-07-05 07:11:20, 238.8
2022-07-05 07:11:30, 238.8
2022-07-05 07:11:40, 238.8
2022-07-05 07:11:50, 238.8
2022-07-05 07:12:00, 238.8
2022-07-05 07:12:10, 238.8
2022-07-05 07:12:20, 238.9
2022-07-05 07:12:30, 238.9
2022-07-05 07:12:40, 239.0
2022-07-05 07:12:50, 238.9
2022-07-05 07:13:00, 239.0
2022-07-05 07:13:10, 238.7
2022-07-05 07:13:20, 239.0
2022-07-05 07:13:30, 239.0
2022-07-05 07:13:40, 239.0
2022-07-05 07:13:50, 239.0
2022-07-05 07:14:00, 239.1
2022-07-05 07:14:10, 239.1
2022-07-05 07:14:20, 239.1
2022-07-05 07:14:30, 239.1
2022-07-05 07:14:40, 239.0
2022-07-05 07:14:50, 239.3
2022-07-05 07:15:00, 239.1
2022-07-05 07:15:10, 239.0
2022-07-05 07:15:20, 239.0
2022-07-05 07:15:30, 239.5
2022-07-05 07:15:40, 239.7
2022-07-05 07:15:50, 239.7
2022-07-05 07:16:00, 239.4
2022-07-05 07:16:10, 239.2
2022-07-05 07:16:20, 239.1
2022-07-05 07:16:30, 239.4
2022-07-05 07:16:40, 239.3
2022-07-05 07:16:50, 239.5
2022-07-05 07:17:00, 239.3
2022-07-05 07:17:10, 239.3
2022-07-05 07:17:20, 239.2
2022-07-05 07:17:30, 239.2
2022-07-05 07:17:40, 239.3
2022-07-05 07:17:50, 239.3
2022-07-05 07:18:00, 239.5
2022-07-05 07:18:10, 239.4
2022-07-05 07:18:20, 239.3
2022-07-05 07:18:30, 239.2
2022-07-05 07:18:40, 239.2
2022-07-05 07:18:50, 239.2
2022-07-05 07:19:00, 239.3
2022-07-05 07:19:10, 239.4
2022-07-05 07:19:20, 239.5
2022-07-05 07:19:30, 239.4
2022-07-05 07:19:40, 239.4
2022-07-05 07:19:50, 239.3
2022-07-05 07:20:00, 239.4
2022-07-05 07:20:10, 239.3
2022-07-05 07:20:20, 239.3
2022-07-05 07:20:30, 239.7
2022-07-05 07:20:40, 239.8
2022-07-05 07:20:50, 239.1
2022-07-05 07:21:00, 239.2
2022-07-05 07:21:10, 239.3
2022-07-05 07:21:20, 238.9
2022-07-05 07:21:30, 239.5
2022-07-05 07:21:40, 239.7
2022-07-05 07:21:50, 240.2
2022-07-05 07:22:00, 240.4
2022-07-05 07:22:10, 241.3
2022-07-05 07:22:20, 241.3
2022-07-05 07:22:30, 241.3
2022-07-05 07:22:40, 241.3
2022-07-05 07:22:50, 241.3
2022-07-05 07:23:00, 241.3
2022-07-05 07:23:10, 241.3
2022-07-05 07:23:20, 241.3
2022-07-05 07:23:30, 241.3
2022-07-05 07:23:40, 241.3
2022-07-05 07:23:50, 241.3
2022-07-05 07:24:00, 241.3
2022-07-05 07:24:10, 241.3
2022-07-05 07:24:20, 241.3
2022-07-05 07:24:30, 241.3
2022-07-05 07:24:40, 241.3
2022-07-05 07:24:50, 240.9
2022-07-05 07:25:00, 239.1
2022-07-05 07:25:10, 239.9
2022-07-05 07:25:20, 239.8
2022-07-05 07:25:30, 239.8
2022-07-05 07:25:40, 239.8
2022-07-05 07:25:50, 239.6
2022-07-05 07:26:00, 239.5
2022-07-05 07:26:10, 239.1
2022-07-05 07:26:20, 239.3
2022-07-05 07:26:30, 239.3
2022-07-05 07:26:40, 239.2
2022-07-05 07:26:50, 239.3
2022-07-05 07:27:00, 239.3
2022-07-05 07:27:10, 239.3
2022-07-05 07:27:20, 239.3
2022-07-05 07:27:30, 239.3
2022-07-05 07:27:40, 239.3
2022-07-05 07:27:50, 239.3
2022-07-05 07:28:00, 239.3
2022-07-05 07:28:10, 239.3
2022-07-05 07:28:20, 239.3
2022-07-05 07:28:30, 239.3
2022-07-05 07:28:40, 239.3
2022-07-05 07:28:50, 239.3
2022-07-05 07:29:00, 239.3
2022-07-05 07:29:10, 239.3
2022-07-05 07:29:20, 239.3
2022-07-05 07:29:30, 239.3
2022-07-05 07:29:40, 239.3
2022-07-05 07:29:50, 239.3
2022-07-05 07:30:00, 239.3
2022-07-05 07:30:10, 239.3
2022-07-05 07:30:20, 239.3
2022-07-05 07:30:30, 239.3
2022-07-05 07:30:40, 239.3
2022-07-05 07:30:50, 239.3
2022-07-05 07:31:00, 239.3
2022-07-05 07:31:10, 239.3
2022-07-05 07:31:20, 239.3
2022-07-05 07:31:30, 239.3
2022-07-05 07:31:40, 239.3
2022-07-05 07:31:50, 239.3
2022-07-05 07:32:00, 239.3
2022-07-05 07:32:10, 239.3
2022-07-05 07:32:20, 239.3
2022-07-05 07:32:30, 239.3
2022-07-05 07:32:40, 239.3
2022-07-05 07:32:50, 239.3
2022-07-05 07:33:00, 239.3
2022-07-05 07:33:10, 239.3
2022-07-05 07:33:20, 239.3
2022-07-05 07:33:30, 239.3
2022-07-05 07:33:40, 239.3
2022-07-05 07:33:50, 239.3
2022-07-05 07:34:00, 239.3
2022-07-05 07:34:10, 239.3
2022-07-05 07:34:20, 239.3
2022-07-05 07:34:30, 239.3
2022-07-05 07:34:40, 239.3
2022-07-05 07:34:50, 239.3
2022-07-05 07:35:00, 239.3
2022-07-05 07:35:10, 239.3
2022-07-05 07:35:20, 239.3
2022-07-05 07:35:30, 239.3
2022-07-05 07:35:40, 239.3
2022-07-05 07:35:50, 239.4
2022-07-05 07:36:00, 240.3
2022-07-05 07:36:10, 240.3
2022-07-05 07:36:20, 240.3
2022-07-05 07:36:30, 240.3
2022-07-05 07:36:40, 240.3
2022-07-05 07:36:50, 240.2
2022-07-05 07:37:00, 239.3
2022-07-05 07:37:10, 240.0
2022-07-05 07:37:20, 240.5
2022-07-05 07:37:30, 240.5
2022-07-05 07:37:40, 240.5
2022-07-05 07:37:50, 240.6
2022-07-05 07:38:00, 240.5
2022-07-05 07:38:10, 239.9
2022-07-05 07:38:20, 240.4
2022-07-05 07:38:30, 238.7
2022-07-05 07:38:40, 238.7
2022-07-05 07:38:50, 237.7
2022-07-05 07:39:00, 237.1
2022-07-05 07:39:10, 236.8
2022-07-05 07:39:20, 236.9
2022-07-05 07:39:30, 238.7
2022-07-05 07:39:40, 239.2
2022-07-05 07:39:50, 239.3
2022-07-05 07:40:00, 239.3
2022-07-05 07:40:10, 239.8
2022-07-05 07:40:20, 239.7
2022-07-05 07:40:30, 239.8
2022-07-05 07:40:40, 240.4
2022-07-05 07:40:50, 240.3
2022-07-05 07:41:00, 240.3
2022-07-05 07:41:10, 240.3
2022-07-05 07:41:20, 240.3
2022-07-05 07:41:30, 240.3
2022-07-05 07:41:40, 240.3
2022-07-05 07:41:50, 240.3
2022-07-05 07:42:00, 240.3
2022-07-05 07:42:10, 240.3
2022-07-05 07:42:20, 240.3
2022-07-05 07:42:30, 240.3
2022-07-05 07:42:40, 240.3
2022-07-05 07:42:50, 240.3
2022-07-05 07:43:00, 240.3
2022-07-05 07:43:10, 240.3
2022-07-05 07:43:20, 240.3
2022-07-05 07:43:30, 240.3
2022-07-05 07:43:40, 240.3
2022-07-05 07:43:50, 240.3
2022-07-05 07:44:00, 240.3
2022-07-05 07:44:10, 240.3
2022-07-05 07:44:20, 240.3
2022-07-05 07:44:30, 240.3
2022-07-05 07:44:40, 240.3
2022-07-05 07:44:50, 240.3
2022-07-05 07:45:00, 240.3
2022-07-05 07:45:10, 240.3
2022-07-05 07:45:20, 240.3
2022-07-05 07:45:30, 240.3
2022-07-05 07:45:40, 240.3
2022-07-05 07:45:50, 240.3
2022-07-05 07:46:00, 240.3
2022-07-05 07:46:10, 240.3
2022-07-05 07:46:20, 240.3
2022-07-05 07:46:30, 240.3
2022-07-05 07:46:40, 240.3
2022-07-05 07:46:50, 240.3
2022-07-05 07:47:00, 240.3
2022-07-05 07:47:10, 240.3
2022-07-05 07:47:20, 240.3
2022-07-05 07:47:30, 240.3
2022-07-05 07:47:40, 240.3
2022-07-05 07:47:50, 240.3
2022-07-05 07:48:00, 240.3
2022-07-05 07:48:10, 240.3
2022-07-05 07:48:20, 240.3
2022-07-05 07:48:30, 240.3
2022-07-05 07:48:40, 240.3
2022-07-05 07:48:50, 240.3
2022-07-05 07:49:00, 240.3
2022-07-05 07:49:10, 240.3
2022-07-05 07:49:20, 240.3
2022-07-05 07:49:30, 240.3
2022-07-05 07:49:40, 240.3
2022-07-05 07:49:50, 240.3
2022-07-05 07:50:00, 240.3
2022-07-05 07:50:10, 240.3
2022-07-05 07:50:20, 240.3
2022-07-05 07:50:30, 240.3
2022-07-05 07:50:40, 240.3
2022-07-05 07:50:50, 240.3
2022-07-05 07:51:00, 240.3
2022-07-05 07:51:10, 240.3
2022-07-05 07:51:20, 240.3
2022-07-05 07:51:30, 240.3
2022-07-05 07:51:40, 240.3
2022-07-05 07:51:50, 240.3
2022-07-05 07:52:00, 240.3
2022-07-05 07:52:10, 240.3
2022-07-05 07:52:20, 240.3
2022-07-05 07:52:30, 240.3
2022-07-05 07:52:40, 240.3
2022-07-05 07:52:50, 240.3
2022-07-05 07:53:00, 240.3
2022-07-05 07:53:10, 240.3
2022-07-05 07:53:20, 240.3
2022-07-05 07:53:30, 240.3
2022-07-05 07:53:40, 240.3
2022-07-05 07:53:50, 240.3
2022-07-05 07:54:00, 240.3
2022-07-05 07:54:10, 240.3
2022-07-05 07:54:20, 240.3
2022-07-05 07:54:30, 240.3
2022-07-05 07:54:40, 240.3
2022-07-05 07:54:50, 240.3
2022-07-05 07:55:00, 240.3
2022-07-05 07:55:10, 240.3
2022-07-05 07:55:20, 240.3
2022-07-05 07:55:30, 240.3
2022-07-05 07:55:40, 240.3
2022-07-05 07:55:50, 240.3
2022-07-05 07:56:00, 240.3
2022-07-05 07:56:10, 240.3
2022-07-05 07:56:20, 240.3
2022-07-05 07:56:30, 240.3
2022-07-05 07:56:40, 240.3
2022-07-05 07:56:50, 240.3
2022-07-05 07:57:00, 240.3
2022-07-05 07:57:10, 240.3
2022-07-05 07:57:20, 240.3
2022-07-05 07:57:30, 240.3
2022-07-05 07:57:40, 240.3
2022-07-05 07:57:50, 240.3
2022-07-05 07:58:00, 240.3
2022-07-05 07:58:10, 240.3
2022-07-05 07:58:20, 240.3
2022-07-05 07:58:30, 240.3
2022-07-05 07:58:40, 240.3
2022-07-05 07:58:50, 240.3
2022-07-05 07:59:00, 240.3
2022-07-05 07:59:10, 240.3
2022-07-05 07:59:20, 240.3
2022-07-05 07:59:30, 240.3
2022-07-05 07:59:40, 240.3
2022-07-05 07:59:50, 240.3
2022-07-05 08:00:00, 240.3
2022-07-05 08:00:10, 240.3
2022-07-05 08:00:20, 240.3
2022-07-05 08:00:30, 240.3
2022-07-05 08:00:40, 240.3
2022-07-05 08:00:50, 240.3
2022-07-05 08:01:00, 240.3
2022-07-05 08:01:10, 240.3
2022-07-05 08:01:20, 240.3
2022-07-05 08:01:30, 240.3
2022-07-05 08:01:40, 240.3
2022-07-05 08:01:50, 240.3
2022-07-05 08:02:00, 240.3
2022-07-05 08:02:10, 240.3
2022-07-05 08:02:20, 240.3
2022-07-05 08:02:30, 240.3
2022-07-05 08:02:40, 240.3
2022-07-05 08:02:50, 240.3
2022-07-05 08:03:00, 240.3
2022-07-05 08:03:10, 240.3
2022-07-05 08:03:20, 240.3
2022-07-05 08:03:30, 240.3
2022-07-05 08:03:40, 240.3
2022-07-05 08:03:50, 240.3
2022-07-05 08:04:00, 240.3
2022-07-05 08:04:10, 240.3
2022-07-05 08:04:20, 240.3
2022-07-05 08:04:30, 240.3
2022-07-05 08:04:40, 240.3
2022-07-05 08:04:50, 240.3
2022-07-05 08:05:00, 240.3
2022-07-05 08:05:10, 240.3
2022-07-05 08:05:20, 240.3
2022-07-05 08:05:30, 240.3
2022-07-05 08:05:40, 240.3
2022-07-05 08:05:50, 240.3
2022-07-05 08:06:00, 240.3
2022-07-05 08:06:10, 240.3
2022-07-05 08:06:20, 240.3
2022-07-05 08:06:30, 240.3
2022-07-05 08:06:40, 240.3
2022-07-05 08:06:50, 240.3
2022-07-05 08:07:00, 240.3
2022-07-05 08:07:10, 240.3
2022-07-05 08:07:20, 240.3
2022-07-05 08:07:30, 240.3
2022-07-05 08:07:40, 240.3
2022-07-05 08:07:50, 240.3
2022-07-05 08:08:00, 240.3
2022-07-05 08:08:10, 240.3
2022-07-05 08:08:20, 240.3
2022-07-05 08:08:30, 240.3
2022-07-05 08:08:40, 240.3
2022-07-05 08:08:50, 240.3
2022-07-05 08:09:00, 240.3
2022-07-05 08:09:10, 240.3
2022-07-05 08:09:20, 240.3
2022-07-05 08:09:30, 240.3
2022-07-05 08:09:40, 240.3
2022-07-05 08:09:50, 240.3
2022-07-05 08:10:00, 240.3
2022-07-05 08:10:10, 240.3
2022-07-05 08:10:20, 240.3
2022-07-05 08:10:30, 240.1
2022-07-05 08:10:40, 239.8
2022-07-05 08:10:50, 239.6
2022-07-05 08:11:00, 239.6
2022-07-05 08:11:10, 238.7
2022-07-05 08:11:20, 239.7
2022-07-05 08:11:30, 239.8
2022-07-05 08:11:40, 239.8
2022-07-05 08:11:50, 239.8
2022-07-05 08:12:00, 239.8
2022-07-05 08:12:10, 239.8
2022-07-05 08:12:20, 239.8
2022-07-05 08:12:30, 239.4
2022-07-05 08:12:40, 240.1
2022-07-05 08:12:50, 239.8
2022-07-05 08:13:00, 239.8
2022-07-05 08:13:10, 239.9
2022-07-05 08:13:20, 239.9
2022-07-05 08:13:30, 239.9
2022-07-05 08:13:40, 239.9
2022-07-05 08:13:50, 239.8
2022-07-05 08:14:00, 240.0
2022-07-05 08:14:10, 239.9
2022-07-05 08:14:20, 239.8
2022-07-05 08:14:30, 239.8
2022-07-05 08:14:40, 239.7
2022-07-05 08:14:50, 240.1
2022-07-05 08:15:00, 240.1
2022-07-05 08:15:10, 240.1
2022-07-05 08:15:20, 240.1
2022-07-05 08:15:30, 240.1
2022-07-05 08:15:40, 240.1
2022-07-05 08:15:50, 240.1
2022-07-05 08:16:00, 240.1
2022-07-05 08:16:10, 240.1
2022-07-05 08:16:20, 240.1
2022-07-05 08:16:30, 240.1
2022-07-05 08:16:40, 240.1
2022-07-05 08:16:50, 240.1
2022-07-05 08:17:00, 240.1
2022-07-05 08:17:10, 240.1
2022-07-05 08:17:20, 240.1
2022-07-05 08:17:30, 240.1
2022-07-05 08:17:40, 240.1
2022-07-05 08:17:50, 240.1
2022-07-05 08:18:00, 240.1
2022-07-05 08:18:10, 240.1
2022-07-05 08:18:20, 240.1
2022-07-05 08:18:30, 240.1
2022-07-05 08:18:40, 240.1
2022-07-05 08:18:50, 240.1
2022-07-05 08:19:00, 240.1
2022-07-05 08:19:10, 240.1
2022-07-05 08:19:20, 240.1
2022-07-05 08:19:30, 240.1
2022-07-05 08:19:40, 240.1
2022-07-05 08:19:50, 240.1
2022-07-05 08:20:00, 240.1
2022-07-05 08:20:10, 240.1
2022-07-05 08:20:20, 240.1
2022-07-05 08:20:30, 240.1
2022-07-05 08:20:40, 240.1
2022-07-05 08:20:50, 240.1
2022-07-05 08:21:00, 240.1
2022-07-05 08:21:10, 240.1
2022-07-05 08:21:20, 240.1
2022-07-05 08:21:30, 240.1
2022-07-05 08:21:40, 240.1
2022-07-05 08:21:50, 240.1
2022-07-05 08:22:00, 240.1
2022-07-05 08:22:10, 240.1
2022-07-05 08:22:20, 240.1
2022-07-05 08:22:30, 240.1
2022-07-05 08:22:40, 240.1
2022-07-05 08:22:50, 240.1
2022-07-05 08:23:00, 240.1
2022-07-05 08:23:10, 240.1
2022-07-05 08:23:20, 240.1
2022-07-05 08:23:30, 240.1
2022-07-05 08:23:40, 240.1
2022-07-05 08:23:50, 240.1
2022-07-05 08:24:00, 240.1
2022-07-05 08:24:10, 240.1
2022-07-05 08:24:20, 240.1
2022-07-05 08:24:30, 240.1
2022-07-05 08:24:40, 240.1
2022-07-05 08:24:50, 240.1
2022-07-05 08:25:00, 240.1
2022-07-05 08:25:10, 240.1
2022-07-05 08:25:20, 240.1
2022-07-05 08:25:30, 240.1
2022-07-05 08:25:40, 240.1
2022-07-05 08:25:50, 240.1
2022-07-05 08:26:00, 240.1
2022-07-05 08:26:10, 240.1
2022-07-05 08:26:20, 240.1
2022-07-05 08:26:30, 240.1
2022-07-05 08:26:40, 240.1
2022-07-05 08:26:50, 240.1
2022-07-05 08:27:00, 240.1
2022-07-05 08:27:10, 240.1
2022-07-05 08:27:20, 240.1
2022-07-05 08:27:30, 240.1
2022-07-05 08:27:40, 240.1
2022-07-05 08:27:50, 240.1
2022-07-05 08:28:00, 240.1
2022-07-05 08:28:10, 240.1
2022-07-05 08:28:20, 240.1
2022-07-05 08:28:30, 240.1
2022-07-05 08:28:40, 240.1
2022-07-05 08:28:50, 240.1
2022-07-05 08:29:00, 240.1
2022-07-05 08:29:10, 240.1
2022-07-05 08:29:20, 240.1
2022-07-05 08:29:30, 240.1
2022-07-05 08:29:40, 240.1
2022-07-05 08:29:50, 240.1
2022-07-05 08:30:00, 240.1
2022-07-05 08:30:10, 240.1
2022-07-05 08:30:20, 240.1
2022-07-05 08:30:30, 240.1
2022-07-05 08:30:40, 240.1
2022-07-05 08:30:50, 240.1
2022-07-05 08:31:00, 240.1
2022-07-05 08:31:10, 240.1
2022-07-05 08:31:20, 240.1
2022-07-05 08:31:30, 240.1
2022-07-05 08:31:40, 240.1
2022-07-05 08:31:50, 240.1
2022-07-05 08:32:00, 240.1
2022-07-05 08:32:10, 240.1
2022-07-05 08:32:20, 240.1
2022-07-05 08:32:30, 240.1
2022-07-05 08:32:40, 240.1
2022-07-05 08:32:50, 240.1
2022-07-05 08:33:00, 240.1
2022-07-05 08:33:10, 240.1
2022-07-05 08:33:20, 240.1
2022-07-05 08:33:30, 240.1
2022-07-05 08:33:40, 240.1
2022-07-05 08:33:50, 240.1
2022-07-05 08:34:00, 240.1
2022-07-05 08:34:10, 240.1
2022-07-05 08:34:20, 240.1
2022-07-05 08:34:30, 240.1
2022-07-05 08:34:40, 240.1
2022-07-05 08:34:50, 240.1
2022-07-05 08:35:00, 240.1
2022-07-05 08:35:10, 240.1
2022-07-05 08:35:20, 240.1
2022-07-05 08:35:30, 240.1
2022-07-05 08:35:40, 240.1
2022-07-05 08:35:50, 240.1
2022-07-05 08:36:00, 240.1
2022-07-05 08:36:10, 240.1
2022-07-05 08:36:20, 240.1
2022-07-05 08:36:30, 240.1
2022-07-05 08:36:40, 240.1
2022-07-05 08:36:50, 240.1
2022-07-05 08:37:00, 240.1
2022-07-05 08:37:10, 240.1
2022-07-05 08:37:20, 240.1
2022-07-05 08:37:30, 240.1
2022-07-05 08:37:40, 240.1
2022-07-05 08:37:50, 240.1
2022-07-05 08:38:00, 240.1
2022-07-05 08:38:10, 240.1
2022-07-05 08:38:20, 240.1
2022-07-05 08:38:30, 240.1
2022-07-05 08:38:40, 240.1
2022-07-05 08:38:50, 240.1
2022-07-05 08:39:00, 240.1
2022-07-05 08:39:10, 240.1
2022-07-05 08:39:20, 240.1
2022-07-05 08:39:30, 240.1
2022-07-05 08:39:40, 240.1
2022-07-05 08:39:50, 240.1
2022-07-05 08:40:00, 240.1
2022-07-05 08:40:10, 240.1
